Powrót do katalogu

CHUANG XIN 16B

CX-16B

AktywnyŁącznośćVLEO
NORAD 53876·PAYLOAD·🇨🇳 China

Wystrzelony Aug 23, 2022 z Xichang Satellite Launch Center

Loading…

Następne Przeloty (najbliższe 24 godziny)

TLE

ŚwieżeSource: Space-Track

Epoka: Sep 14, 2026, 18:19 UTC

1 53876U 22102B   26257.76347036  .00048032  00000-0  72937-3 0  9992
2 53876  28.9891 285.2420 0001891 188.8537 171.2042 15.53198788220613

Śledź CHUANG XIN 16B w czasie rzeczywistym z AllMySat

Download on the App Store